SL-14 DEB, 45323

Orbit data source: Space-Track

SL-14 DEB, 45323 is space debris in LEO originally from a launch on Thu, 15 Aug 1991 UTC launched from the Plesetsk Missile And Space Complex (PKMTR). Debris objects in space refer to the collection of defunct objects orbiting the Earth. Examples of debris include non-operational satellites, rocket bodies, and fragments generated from explosions, collisions, or faulty payload assembly.

Loading next visibility...
Identifier
45323, 1991-056BM
Orbit
LEO
Country
Flag of CISCIS
Related business
Manufacturer
Unknown
Mission
Spacecraft
Bus & Motor
Unknown
Mass
Unknown
Launch date (UTC)
1991-08-15 (34 years ago)
Launch vehicle
Unknown
Launch site
Plesetsk Missile And Space Complex (PKMTR)
Object type
Payload
Rocket body
Debris
Shape & HBR
Unknown
Radar Cross Section
Small (<0.1 m²)

Expand to show TLE details & history
Last TLE update: 2 days ago

TLE from 2 days ago
0 SL-14 DEB
1 45323U 91056BM  25258.88534976  .00000437  00000-0  10475-2 0  9993
2 45323  82.5313 322.8437 0004725  98.4713 261.6947 13.20571497267188
Epoch: 2025-09-15T21:14Z
TLE epoch observation values (Epoch: 2025-09-15T21:14:54.219Z)
Latitude
-0.00001°
Longitude
9.0342°
Altitude
1,185.868 km
Speed
7.26 km/s
True Right ascension
21h 31m 22s
True Declination
0° 00' 00"
Sunlit
Object was in full shadow at epoch
Visualization orbit readout
Latitude
Unknown
Longitude
Unknown
Altitude
Unknown
Speed
Unknown
Apparent Right ascension
Unknown
Apparent Declination
Unknown
Sunlit
N/A
Visualization observer readout
Local Sidereal Time
00:10:40
Azimuth
Unknown
Elevation
Unknown
Doppler factor
Unknown
Orbital elements
Apogee altitude
1,183.349 km
Perigee altitude
1,176.207 km
Semi-major axis
7,557.915 km
Eccentricity
0.00047
Inclination
82.5313°
RAAN
322.8437°
Arg. of periapsis
98.4713°
True anomaly
261.64113°
Mean anomaly
261.6947°
Eccentric anomaly
261.66791°
Mean motion
3.30324 °/min
Orbital period
108.98 mins
BSTAR
0.0010475
Loading maneuver chart data...
Computing Atmospheric mass density...
Loading historical data...
Loading historical data...
Loading historical data...
Loading historical data...
Loading historical data...
Loading historical data...
Loading historical data...

Documentation

Showing up to 5 results
|